sat.trackr.live / text

‹ back to catalog

STARLINK-31171

NORAD 58834 · 2024-017J

PAYLOAD ACTIVE UNKNOWN

§ Identity

Operator
Country
US
Launch date
2024-01-24
Launch site
AFWTR
Launch vehicle
Mass (kg)
RCS (m²)

Purposes: comms

External: N2YO · Heavens-Above · Gunter

§ Orbital elements

Epoch: 2026-05-24T11:09:47.787552Z

Period
94.11 min
Inclination
53.1589°
Eccentricity
0.0001152
Mean motion
15.30194481 rev/d
Perigee alt
474.4 km
Apogee alt
476.0 km
Semi-major
6,853.4 km
B*
8.5640e-6
RAAN
188.7934°
Arg perigee
77.6439°
Mean anomaly
282.4691°
Rev number
13,198

§ Raw data

STARLINK-311711 58834U 24017J   26144.46513643 -.00000105  00000+0  85640-5 0  99952 58834  53.1589 188.7934 0001152  77.6439 282.4691 15.30194481131986

JSON: /api/v1/satellites/58834 · /tle

For live sub-satellite position, see the globe view (requires WebGL).

§ Visibility from observer

Set your observer location to see the next 7 days of passes ≥ 10°. The values pass through the URL so the page stays shareable.

No JS? Fill the form by hand. The geolocation button needs JavaScript.